Index of /src

[ICO]NameLast modifiedSizeDescription

[PARENTDIR]Parent Directory  -  
[DIR]1999-00-00_tracking_patterns_of_the_90s/2018-03-08 02:36 -  
[DIR]1999-10-11_missessions_by_loosebot/2006-08-05 03:24 -  
[DIR]2000-03-01_march_00_mixes/2014-11-19 20:22 -  
[DIR]2000-03-22_synthetic_and_aesthetic_transitions/2006-08-05 03:44 -  
[DIR]2000-12-26_one_out_of_five_memories/2006-08-05 03:27 -  
[DIR]2001-03-10_z_veseljem/2006-08-05 03:45 -  
[DIR]2001-06-16_expression_front/2003-01-23 19:32 -  
[DIR]2001-11-20_camcomcut/2015-09-12 12:26 -  
[DIR]2001-11-20_stripes/2007-08-28 01:55 -  
[DIR]2002-03-13_systre/2006-08-05 04:05 -  
[DIR]2002-05-26_loosebot_lost_druids/2006-08-05 03:03 -  
[DIR]2002-05-26_no_sign/2006-08-05 04:04 -  
[DIR]2002-07-03_wong_quantas_by_loosebot/2006-08-05 03:37 -  
[DIR]2002-10-24_ultraskin_music/2009-05-18 23:40 -  
[DIR]2002-12-27_prechange_by_loosebot/2005-03-17 18:46 -  
[DIR]2003-08-12_no-org_pomo_3/2009-05-18 23:13 -  
[DIR]2003-10-20_law_and_order_mixes/2008-03-28 19:33 -  
[DIR]2003-12-20_rejected_prayer/2009-05-18 22:48 -  
[DIR]2004-05-05_z_spavatsky_d0/2007-08-28 17:15 -  
[DIR]2005-05-08_frake_lroop_prayer/2006-08-05 03:21 -  
[DIR]2005-06-30_cona_d/2009-01-06 02:44 -  
[DIR]2005-10-08_horvat_saletic_princic_batista_moderna_galerija/2018-03-08 02:43 -  
[DIR]2005-11-18_zarobotko_sn_krizs_viator/2005-12-15 18:44 -  
[DIR]2005-12-15_dead_thoughts/2005-12-25 20:57 -  
[DIR]2005-12-24_produce_the_consumer/2005-12-24 18:53 -  
[DIR]2005-12-25_broken_spaces_mix/2005-12-25 22:32 -  
[DIR]2006-01-13_granumachines_and_noise/2007-08-28 01:27 -  
[DIR]2006-01-21_nova_viator_rudirudi/2006-01-21 03:31 -  
[DIR]2006-01-29_adhoc_idm-tech_mix/2006-02-25 13:26 -  
[DIR]2006-02-14_happy_wellington_live/2006-03-24 02:30 -  
[DIR]2006-02-23_nova_viator_live_at_minim/2006-02-25 13:27 -  
[DIR]2006-02-26_room103_ak_nz_live/2006-03-13 13:32 -  
[DIR]2006-03-24_nova_viator__shizto_brejki/2018-03-08 02:46 -  
[DIR]2006-04-07_medmesto_rog/2006-04-28 13:18 -  
[DIR]2006-05-31_rog_we_are_temporary/2011-03-08 17:46 -  
[DIR]2006-07-06_elektroblef_radio_show_98-06/2011-03-08 21:59 -  
[DIR]2006-07-31_playful_bowl_of_emotions_mix/2006-08-09 13:54 -  
[DIR]2006-08-17_kinoko_for_squares/2006-11-20 23:57 -  
[DIR]2006-08-22_see-x+viator_rehearsal1/2006-10-21 13:03 -  
[DIR]2006-09-04_towards_peak_of_fairies/2006-09-04 05:27 -  
[DIR]2006-10-15_xstructerros_windows/2006-11-19 01:03 -  
[DIR]2006-11-18_gizikomori_and_other_fluffy_animals/2006-11-18 18:39 -  
[DIR]2007-03-15_cycled_aoteaora_07/2011-03-08 14:44 -  
[DIR]2007-07-07_kinoko_aether777/2007-07-08 08:30 -  
[DIR]2007-07-11_max_wolfram_0.1/2007-07-13 18:40 -  
[DIR]2007-07-24_wd8_wd40/2009-08-21 15:15 -  
[DIR]2007-08-01_empty_homeless_poem/2007-08-10 10:46 -  
[DIR]2007-08-08_x.struct.erros.tempos/2007-08-10 10:48 -  
[DIR]2007-08-21_tori_me_hero/2007-08-21 00:50 -  
[DIR]2007-10-08_brute_figure/2011-03-08 18:22 -  
[DIR]2007-10-22_feedforward_cinema_kinodvor/2007-12-31 01:31 -  
[DIR]2007-11-01_oziranja_meshes_preview/2007-11-01 21:07 -  
[DIR]2007-11-14_bark_so_i_can_see_you/2007-11-15 03:45 -  
[DIR]2007-11-22_retrospections_maya_deren/2010-12-07 13:13 -  
[DIR]2007-12-05_robot_partner/2012-07-20 19:40 -  
[DIR]2007-12-10_waves_in_public_squares/2007-12-21 14:04 -  
[DIR]2007-12-26_roulette_slow_version/2007-12-31 01:01 -  
[DIR]2008-01-30_deviantovi_fragmenti_1/2008-01-30 21:06 -  
[DIR]2008-03-05_deviantovi_fragmenti_2/2008-03-05 16:10 -  
[DIR]2008-03-26_a_still_frame_from_an_imaginary../2008-03-26 02:26 -  
[DIR]2008-04-02_deviantovi_fragmenti_3/2008-04-02 23:23 -  
[DIR]2008-04-13_korkyra_probabilities/2008-04-12 19:20 -  
[DIR]2008-04-16_velebit_road/2008-04-24 01:22 -  
[DIR]2008-04-27_cause_heretics/2008-04-27 00:22 -  
[DIR]2008-04-30_deviantovi_fragmenti_4/2008-06-03 14:02 -  
[DIR]2008-06-04_deviantovi_fragmenti_5/2008-06-03 13:28 -  
[DIR]2008-07-01_lucid_unreason_wd8_version/2008-07-29 23:04 -  
[DIR]2008-07-16_simple_collider_step/2008-07-16 18:55 -  
[DIR]2008-11-13_spread_spaces_sensible_forcefulness/2011-03-06 20:52 -  
[DIR]2008-11-22_igor_zabel_award/2008-12-16 22:42 -  
[DIR]2008-12-02_leave_me_to_the_flow/2011-02-09 10:08 -  
[DIR]2008-12-29_intimate_suppression/2009-01-06 02:15 -  
[DIR]2008-12-31_leopoldina_istanbul_pilgrimage/2012-09-09 20:11 -  
[DIR]2009-02-23_une_fašon_d'aimer/2011-02-15 13:50 -  
[DIR]2009-06-09_fiberoptikal/2011-03-15 00:37 -  
[DIR]2009-10-07_fragments_from_a_deviant/2009-10-07 03:06 -  
[DIR]2009-12-02_dev_frag_19_ariel_levy_+wndv/2009-12-02 14:06 -  
[DIR]2010-03-16_avant_premiere_10/2011-03-08 13:40 -  
[DIR]2010-07-01_beside-ness/2010-07-08 01:41 -  
[DIR]2011-03-03_nova_deviator_tresk_noise/2011-07-18 18:36 -  
[DIR]2011-04-14_fun_with_junction/2011-04-14 16:31 -  
[DIR]2011-09-17_hungary09_import_export/2011-09-17 22:23 -  
[DIR]2012-06-07_sad_sam_lucky_outtakes/2013-01-15 22:18 -  
[DIR]2012-06-29_enter_the_heat_2012/2013-01-08 15:54 -  
[DIR]2012-10-15_mursat_sonification/2012-11-09 13:55 -  
[DIR]2012-12-21_i_am_not_like_that_in_real_life/2013-01-08 16:18 -  
[DIR]2013-05-14_non-mathematical_accuracy/2018-03-08 03:17 -  
[DIR]2014-04-24_spring_theory_mix/2018-03-08 03:18 -  
[   ]index-head.inc2017-12-11 11:56 1.0K 
[   ]index-head.inc_bak2007-08-28 01:09 1.5K 
[   ]index-options.php2006-08-05 04:13 949  
[   ]last.php2007-08-28 02:40 326  

Apache/2.4.18 (Ubuntu) Server at deviator.si Port 80